Dewpoint
56 56 56 55 55 55 55 56 56 56 56 56 55 56 56 56 56 56 55 55 55 55 55 56 56 56 56 56 56 57 56 51 48 46 47 41 65 68 65 61 60 64 65 55 55 52 49 48 49 53 56 57 56 56 58 58 60 61 62 62 56 61 60 61 59 60 59 60 63 65 64 64 62 64 64 64 60 61 58 57 56 51 50 52 54 56 56 57
56 55 55 55 55 56 56 56 56 56 55 56 55 56 56 56 56 56 56 55 55 55 55 56 56 56 56 56 57 57 54 50 46 42 33 52 64 69 58 65 64 62 66 53 52 48 46 46 49 55 56 56 57 55 55 58 59 60 58 60 55 61 61 64 61 61 60 60 63 63 63 64 64 65 64 61 60 59 57 55 53 51 53 54 55 55 57 58
55 55 55 55 56 56 56 56 56 56 56 56 56 56 56 56 56 56 55 55 55 55 55 55 55 56 56 56 56 57 55 50 47 41 33 67 66 64 68 65 64 65 59 52 50 45 43 45 50 55 55 55 54 55 58 61 61 63 59 56 57 63 62 65 64 63 64 63 61 63 64 64 64 63 62 61 59 59 56 54 53 53 54 54 54 56 57 58
55 55 55 56 56 56 56 56 56 55 56 56 56 56 56 56 56 56 55 55 55 55 55 55 55 56 56 57 57 56 51 49 38 42 50 68 64 66 66 68 65 65 56 54 48 43 41 43 50 54 54 54 54 54 56 61 60 65 60 61 59 61 60 64 66 66 65 64 62 63 63 62 63 62 62 61 58 59 58 55 54 52 53 54 55 55 56 56
55 56 56 55 55 55 55 56 56 56 56 56 56 56 56 56 56 55 55 55 55 55 55 55 55 56 56 57 57 54 52 26 33 51 60 68 67 64 69 67 66 49 50 53 47 42 40 42 51 54 54 53 55 55 56 61 62 62 60 60 61 60 58 65 65 66 62 63 64 63 61 61 62 63 61 59 58 58 57 54 55 52 53 54 54 54 55 55
55 55 55 55 55 55 55 55 56 56 56 56 56 56 56 55 55 55 55 55 54 54 55 55 55 56 57 57 54 51 44 7 34 56 67 68 68 64 70 66 68 50 47 51 42 39 38 40 50 54 53 54 55 54 57 59 61 59 61 62 62 60 63 65 63 63 63 63 63 62 62 61 62 63 61 59 57 60 58 54 54 52 53 53 54 54 54 54
55 55 55 55 55 55 56 56 56 56 56 56 56 55 55 55 55 55 55 54 54 54 55 55 56 56 57 57 52 47 39 23 44 61 69 66 66 64 65 64 66 53 47 46 40 37 36 40 50 52 53 55 54 55 57 59 59 60 58 63 64 65 64 67 65 66 62 63 63 63 61 63 62 61 64 61 60 60 57 54 54 52 52 52 53 53 53 53
55 55 55 55 55 55 56 56 56 55 56 56 55 56 55 55 55 55 55 55 55 54 55 55 56 57 57 51 47 49 34 12 49 61 71 67 60 54 61 44 43 48 47 41 38 36 34 39 48 53 54 53 53 52 52 53 61 61 58 62 61 64 65 65 64 63 65 65 64 62 62 63 63 63 63 61 60 56 54 54 53 52 51 51 52 51 53 54
55 55 55 55 55 55 55 55 55 56 56 56 56 55 55 55 55 54 55 55 55 55 55 55 56 57 58 54 40 30 19 43 48 59 61 48 39 35 37 34 40 47 43 37 37 33 30 37 46 53 54 53 50 45 47 50 61 58 58 61 62 61 66 64 65 66 67 68 65 63 61 63 64 64 63 61 59 58 54 54 52 52 51 51 50 51 53 54
55 55 55 55 55 55 55 55 55 55 55 56 56 55 55 55 54 54 54 54 55 55 55 55 56 57 53 49 44 31 37 43 49 48 51 42 30 29 29 29 38 45 35 30 31 29 27 38 47 55 54 53 48 41 49 51 60 56 57 62 63 61 64 66 65 66 67 66 66 63 61 62 63 63 60 61 58 56 54 53 52 52 51 50 50 51 53 53
55 55 55 55 55 55 55 55 55 55 55 55 55 54 54 54 54 54 54 54 54 55 55 56 57 56 53 45 34 23 37 41 47 46 42 36 34 29 29 32 38 39 32 28 29 28 26 37 50 56 53 47 47 43 47 52 55 57 57 59 64 64 65 65 67 66 66 64 66 64 63 62 65 63 60 60 58 56 56 53 52 52 52 51 51 51 54 53
55 55 55 55 55 55 55 55 55 55 55 55 54 54 54 54 54 54 54 54 54 54 55 57 57 55 50 47 36 22 29 39 46 42 39 35 36 32 36 33 34 37 32 29 29 27 26 38 52 55 48 47 44 40 48 52 55 58 58 57 62 64 65 66 66 66 65 65 66 66 64 61 61 61 62 58 59 58 57 55 53 52 52 52 53 54 55 55
55 55 55 55 55 55 55 55 55 55 55 54 54 54 54 54 54 53 53 53 55 56 57 57 57 53 49 36 25 20 27 37 41 35 33 33 31 33 36 31 33 37 34 31 28 27 32 45 52 54 53 47 38 36 49 53 55 56 64 58 59 61 60 65 67 65 65 66 67 66 52 56 61 63 63 61 58 58 57 54 53 52 52 53 54 53 55 55
56 56 56 55 56 55 55 55 55 55 54 54 55 54 54 53 53 54 54 54 55 56 57 58 56 52 49 42 20 27 35 40 37 33 30 30 26 27 31 31 35 35 34 32 29 36 41 46 49 53 52 45 37 36 37 47 54 54 56 63 59 55 58 64 64 65 62 66 67 66 52 59 61 63 63 62 59 57 54 52 51 52 52 52 53 53 54 55
56 56 56 55 55 55 55 55 55 55 54 54 54 53 53 53 53 54 55 55 56 57 58 58 56 51 47 30 20 32 56 43 35 31 29 25 23 23 31 35 35 33 30 28 29 35 35 41 47 50 47 45 43 37 37 40 52 58 53 55 53 56 58 62 65 63 60 65 66 64 55 57 61 61 64 63 60 58 54 52 51 51 53 52 53 52 53 54
56 56 56 56 55 55 56 55 55 54 54 54 53 53 53 53 54 54 55 56 57 58 56 56 56 46 39 24 34 46 41 39 33 32 31 29 21 23 28 31 33 32 30 26 26 29 31 37 45 47 46 45 40 35 36 38 48 55 54 52 52 58 57 59 63 64 64 62 66 61 57 59 60 62 64 64 62 58 56 52 52 53 52 52 52 51 53 53
56 56 56 56 55 55 55 55 55 55 54 53 53 53 54 54 54 56 57 58 57 56 55 52 42 39 36 24 29 36 36 40 34 31 30 29 29 24 23 27 29 30 28 26 23 21 24 34 44 48 46 44 39 36 36 40 44 54 54 49 51 53 55 56 61 63 63 62 60 61 58 58 60 61 62 65 64 62 57 56 53 53 52 54 54 51 54 55
56 56 56 55 55 55 55 55 55 54 54 53 53 54 53 56 56 57 56 57 57 53 51 50 43 39 30 17 19 31 38 39 38 33 32 30 31 24 22 20 23 24 24 22 21 15 21 31 42 43 44 42 39 35 34 41 43 43 47 49 50 50 54 54 54 59 60 62 59 58 57 61 61 64 62 63 65 63 59 57 54 51 53 53 53 53 55 55
56 56 56 56 55 55 55 55 55 54 54 54 54 56 56 57 56 55 53 52 48 50 45 35 35 28 11 19 30 32 34 40 40 36 34 32 30 26 20 21 21 22 20 19 17 13 17 27 37 40 42 41 37 34 32 39 41 44 57 50 48 53 51 54 57 59 60 59 58 56 55 59 62 63 63 62 64 64 59 60 57 54 53 54 54 53 55 56
56 56 56 56 55 54 54 54 55 54 53 54 52 56 53 52 48 45 50 46 39 29 25 18 21 25 19 21 26 32 37 39 37 36 34 32 28 27 24 18 15 19 19 16 14 11 13 20 28 36 40 42 39 34 33 39 37 35 48 49 46 56 52 57 54 58 61 59 56 58 57 59 60 62 64 62 63 61 59 59 58 55 54 53 53 54 56 58
56 56 55 55 55 54 54 54 54 54 53 52 53 51 33 27 27 25 24 34 32 21 22 24 23 25 27 27 28 29 33 33 36 34 33 31 27 25 24 19 12 11 16 16 12 13 13 14 22 32 40 41 39 36 30 31 33 32 40 53 52 52 53 58 58 57 57 56 58 58 58 59 61 62 62 63 61 59 58 59 59 55 54 54 55 56 57 58
56 55 55 55 55 54 54 54 53 53 52 53 53 46 30 30 32 33 31 27 24 18 19 20 24 25 28 27 30 32 32 30 32 32 30 28 23 22 24 19 9 4 12 14 14 16 15 11 18 30 38 40 37 30 30 29 31 36 39 42 50 49 52 60 59 58 55 58 59 58 56 58 62 65 62 63 63 60 58 60 59 58 55 55 54 55 57 57
55 55 55 55 55 54 54 53 53 52 53 49 46 44 31 32 34 37 34 30 25 15 17 19 17 19 24 28 28 32 30 30 29 29 27 25 21 21 23 20 14 4 7 12 12 18 15 12 16 30 38 35 30 29 28 29 29 34 36 38 38 48 49 52 61 60 55 53 56 57 54 57 61 65 65 64 64 60 62 62 62 59 56 56 54 55 57 58
55 55 55 55 54 54 53 52 51 52 51 48 39 34 33 34 36 36 34 30 19 12 20 20 23 22 25 25 28 30 29 29 30 26 26 23 18 19 18 19 16 7 4 10 13 18 15 14 16 30 38 35 30 29 28 28 29 30 28 33 37 40 43 45 50 57 56 54 56 56 55 58 61 61 64 65 66 64 67 65 62 61 60 58 55 56 59 59
55 55 55 55 54 53 52 50 50 46 45 44 38 36 35 39 42 39 36 26 16 13 18 19 24 23 26 31 30 30 29 29 28 27 25 22 16 19 16 18 16 7 4 9 13 14 13 20 21 31 35 34 33 31 30 30 28 27 28 31 35 35 37 43 53 55 52 52 56 53 50 52 58 62 60 65 65 63 64 63 62 62 61 59 56 57 58 60
55 55 55 54 54 52 49 45 44 35 33 34 34 36 38 37 39 42 37 32 14 17 24 17 23 22 26 25 28 30 29 25 29 28 24 22 27 18 15 15 15 8 10 13 11 12 15 30 30 26 34 34 33 31 30 30 27 24 22 29 28 29 33 37 42 55 53 48 54 53 49 49 59 60 61 63 63 62 63 63 62 61 62 61 59 57 56 57
55 55 54 54 53 50 50 37 38 34 34 34 35 36 36 36 50 41 35 22 13 16 17 17 20 20 20 26 26 28 22 26 29 29 25 27 23 27 22 14 14 17 13 12 14 9 13 25 32 34 34 33 33 29 28 29 26 20 29 30 31 29 29 32 35 41 52 52 56 55 51 49 53 58 59 61 62 62 62 61 60 61 63 61 60 58 58 57
55 54 54 53 53 50 49 50 41 35 31 33 34 34 37 46 47 41 34 15 11 15 15 13 18 24 21 24 28 23 29 28 24 25 26 23 25 25 24 18 12 16 13 10 9 10 22 27 26 28 30 29 29 29 27 27 26 21 21 23 29 30 29 28 31 35 37 48 53 52 52 50 48 55 59 60 59 60 61 60 61 62 61 61 61 58 57 58
54 54 53 53 53 52 53 49 44 37 33 34 36 36 37 48 40 35 34 16 15 13 21 22 25 20 23 25 25 25 26 26 21 25 27 25 25 27 21 24 15 19 20 14 9 24 28 29 26 25 24 23 25 28 28 27 25 26 25 24 24 25 28 28 30 33 36 41 44 50 50 48 49 54 57 59 58 59 61 61 61 61 60 61 61 59 58 57
54 53 53 53 52 51 51 50 45 38 37 38 38 41 40 39 38 31 20 10 13 11 15 17 20 19 22 21 21 23 24 23 26 27 25 24 26 29 28 23 16 20 21 19 18 18 21 31 33 23 20 19 22 26 29 28 28 27 23 24 24 25 26 29 33 36 39 40 44 51 50 47 46 55 55 57 57 58 60 63 62 61 61 62 61 60 58 56
53 52 52 52 50 45 42 38 42 38 42 45 41 40 40 40 32 25 13 13 15 15 15 16 16 21 19 19 17 21 21 23 27 27 23 27 23 24 24 21 25 22 20 18 16 20 25 26 27 24 23 19 19 21 27 28 27 27 24 23 29 30 32 38 37 40 39 38 43 48 51 50 42 48 53 57 59 59 58 60 60 60 62 63 62 59 57 56
52 51 52 53 51 51 36 32 43 44 45 44 41 37 37 33 38 14 13 16 14 11 11 17 20 20 18 19 18 14 15 22 26 24 23 21 20 22 24 21 21 21 18 14 11 21 23 23 24 23 28 23 22 21 22 25 25 25 25 26 27 33 36 35 39 37 36 37 46 48 55 53 45 49 52 53 56 57 59 59 60 59 61 61 62 60 59 57
51 51 51 51 53 48 41 42 48 50 49 42 41 38 33 30 19 14 9 10 9 11 14 16 16 14 18 16 17 11 19 17 22 23 23 18 22 18 19 19 20 16 15 15 10 14 17 22 20 18 19 24 23 19 18 18 21 24 25 25 26 31 36 34 36 39 39 37 37 51 53 43 54 49 54 54 56 57 57 57 59 60 60 61 62 63 59 58
51 51 51 52 51 47 44 51 49 51 44 44 40 33 32 16 16 24 11 9 7 8 11 10 11 11 16 16 14 14 13 18 18 20 19 21 20 16 18 22 20 15 18 16 10 10 12 14 17 17 16 19 20 18 13 11 14 19 24 24 27 32 34 37 36 33 33 36 37 41 39 40 44 54 52 52 54 56 55 56 59 61 61 62 62 62 60 58
49 49 53 57 52 48 47 47 51 49 46 37 34 31 19 18 15 14 12 10 10 9 9 8 8 8 8 7 14 15 14 14 17 17 20 20 19 21 20 20 23 22 20 15 10 14 11 12 15 16 16 17 15 15 16 12 10 13 20 24 24 25 33 33 34 34 33 34 33 36 36 51 52 56 59 57 54 50 52 56 59 61 62 63 63 62 61 61
50 50 51 51 48 44 48 45 49 47 42 36 31 20 14 17 15 13 10 12 11 10 6 8 7 6 0 5 12 12 13 15 16 16 18 18 17 20 19 19 19 20 19 17 18 12 15 10 14 15 14 16 14 13 14 14 13 10 14 19 23 24 28 34 32 30 34 34 35 47 39 47 52 52 47 53 52 51 51 54 58 60 60 61 61 61 60 62
48 47 45 38 34 34 42 46 44 45 43 36 22 17 18 14 13 14 21 13 9 11 11 10 8 6 8 5 11 9 10 12 13 16 15 15 17 19 19 19 21 19 20 19 19 16 14 11 17 17 16 17 16 13 11 13 15 13 10 13 21 22 23 26 25 33 33 33 35 34 37 45 41 41 48 53 49 49 48 51 57 60 59 58 58 60 60 61
45 36 34 31 31 35 44 48 46 44 38 28 16 24 16 13 14 14 15 15 13 11 11 12 8 8 10 10 5 9 9 9 11 13 15 14 19 19 19 18 20 20 20 20 21 21 17 16 15 15 15 16 16 14 10 12 13 13 12 10 12 19 21 26 29 30 31 32 33 31 29 31 36 45 49 52 48 53 49 51 56 57 58 59 58 59 60 62
47 35 32 30 31 30 37 50 46 40 33 21 22 20 9 13 13 14 15 17 13 14 13 10 10 9 9 8 8 7 9 8 12 11 17 15 18 19 15 17 17 19 19 19 20 20 19 17 17 16 15 13 12 11 12 8 10 12 14 15 15 16 19 23 27 32 32 29 27 29 28 35 39 43 39 51 59 52 49 53 52 52 56 58 60 60 60 61
37 32 27 31 28 31 45 44 35 33 21 20 17 14 12 15 9 13 15 16 13 16 14 14 11 9 10 12 10 10 8 14 13 11 16 15 14 18 13 18 15 19 20 21 18 15 17 24 18 15 14 12 12 13 9 10 8 9 11 14 16 15 16 20 20 26 26 29 27 28 28 41 52 60 53 55 54 55 55 59 58 57 59 59 60 61 63 63
32 28 27 31 27 33 33 30 30 21 18 7 16 15 12 14 15 13 14 13 14 14 16 16 14 13 10 11 11 13 11 15 14 15 18 17 11 17 17 19 19 19 20 20 19 19 22 19 18 16 15 15 12 12 8 8 11 10 8 11 12 11 13 18 20 19 22 24 25 26 28 46 55 60 60 57 57 58 58 58 59 61 60 60 61 64 64 65
34 23 26 28 27 28 29 25 15 16 16 17 11 15 16 27 16 8 14 13 14 13 13 15 15 16 13 14 13 12 15 14 17 17 16 16 15 17 16 19 20 19 18 21 17 19 25 25 17 16 16 15 12 12 10 8 10 12 10 7 9 12 14 15 16 18 19 19 21 24 25 46 55 55 57 58 60 60 60 59 59 64 60 60 60 63 64 65
28 27 30 30 28 26 25 22 20 24 18 12 11 14 14 15 15 10 13 12 15 15 15 17 19 17 17 18 14 12 16 14 13 16 14 16 17 17 18 19 19 19 18 15 17 24 32 24 23 22 21 17 15 11 13 9 12 17 15 11 5 5 6 11 13 17 20 21 19 20 27 40 52 59 59 61 61 61 63 60 59 64 62 61 62 63 64 64
29 25 25 24 28 27 24 23 18 17 15 14 17 13 5 14 16 18 17 17 19 18 19 18 17 19 20 17 17 15 18 20 14 15 16 17 17 19 18 18 18 17 18 24 27 25 22 29 27 21 23 21 16 20 18 17 16 16 14 15 12 7 7 9 11 18 19 17 18 20 22 47 56 57 60 61 59 60 60 61 62 61 63 63 64 65 64 65
27 20 21 21 26 23 19 17 18 17 18 20 18 17 16 15 15 17 19 18 19 19 19 19 19 18 20 18 16 15 15 13 17 16 15 16 16 18 18 18 18 18 21 32 46 26 25 28 30 23 21 20 20 20 22 19 16 14 16 15 16 11 13 15 14 19 17 27 28 22 25 53 55 58 58 58 58 60 61 61 61 63 64 64 65 65 66 65
22 29 20 20 20 18 20 21 16 17 16 21 19 11 13 14 15 16 18 16 17 19 19 19 18 18 16 17 18 16 16 15 16 19 19 17 17 17 17 17 17 18 34 43 39 29 26 26 30 31 29 25 27 32 26 25 17 13 12 14 11 13 15 22 24 22 20 28 28 31 38 44 53 52 56 59 59 59 60 61 61 63 63 65 67 66 67 68
34 27 21 22 18 19 18 14 13 12 18 17 27 16 18 13 11 15 12 18 17 18 19 19 19 19 19 18 20 17 15 15 18 21 19 15 17 16 16 15 16 26 47 43 38 24 30 26 26 32 30 28 24 27 21 22 18 14 10 9 16 20 20 20 20 21 33 24 20 30 36 32 43 45 52 56 57 59 59 60 60 62 64 64 64 66 66 67
26 29 28 31 25 19 17 14 16 14 14 11 21 16 16 18 17 21 16 13 15 17 19 22 20 20 22 25 22 23 23 23 24 20 18 19 18 16 15 15 13 32 38 21 20 25 26 23 21 23 22 21 20 19 19 20 20 20 18 21 20 20 23 22 22 21 25 25 24 42 45 35 35 49 52 54 58 59 56 60 62 62 63 64 65 64 65 66
32 30 26 25 26 24 25 18 17 17 18 18 22 18 18 16 17 13 12 14 15 20 20 29 21 19 21 21 24 30 33 25 26 26 31 23 19 20 19 19 18 16 14 19 23 34 30 23 25 23 22 18 17 19 20 21 22 24 26 28 28 26 22 22 21 19 19 31 33 34 40 43 50 54 52 52 54 56 57 61 62 63 62 63 63 64 64 64
29 37 26 20 26 26 23 17 18 18 20 25 28 20 17 17 18 15 13 9 23 18 16 22 20 20 23 23 30 28 28 31 31 31 25 26 20 23 23 22 19 19 17 20 22 33 28 26 27 25 27 21 16 17 19 20 23 27 26 26 26 25 25 28 26 28 33 34 32 31 41 51 56 60 55 56 57 55 60 59 59 63 62 62 63 63 63 64
50 51 53 44 27 27 27 22 19 23 22 24 24 19 19 17 19 15 18 15 21 26 21 22 20 23 22 25 26 25 24 29 28 26 24 23 26 23 25 27 20 21 20 22 24 27 24 26 23 26 26 22 19 16 16 17 18 24 28 31 33 29 29 34 34 42 40 36 35 33 41 48 55 59 57 57 56 57 58 60 61 62 62 62 63 62 63 64
53 48 51 41 36 37 24 21 25 16 17 25 25 21 23 22 18 17 24 18 18 23 22 20 23 21 25 27 28 26 23 22 23 24 24 21 19 20 19 20 19 24 24 23 26 23 28 29 26 23 22 21 20 21 20 20 18 17 28 30 34 35 39 39 41 43 42 44 42 38 49 55 57 57 54 55 54 55 58 60 60 61 62 63 64 64 64 65